When you browse on this site, cookies collect data to enhance your experience and personalize the content and advertising you see.
Visit our Privacy Policy to learn more. By continuing to use the site, you agree to this use of cookies and data.
  • In Deutschland
  • Länderverzeichnis
  • Für 7 Tage
  • Wassertemperatur
  • Wetterkarte
  • Widgets
  • user-avatar
    Anmelden

    Stündliche Wetter Corozal

    Heute, 15 September, Sonntag

    Zeit Temperatur Niederschläge Wind Luftdruck Luftfeuchtigkeit
    00:00 +26°C° 0 mm 1 m/S 759 mmHg 95%
    01:00 +26°C° 0 mm 1 m/S 758 mmHg 96%
    02:00 +26°C° 0 mm 1 m/S 758 mmHg 96%
    03:00 +25°C° 0 mm 1 m/S 758 mmHg 96%
    04:00 +25°C° 0 mm 1 m/S 758 mmHg 96%
    05:00 +25°C° 0 mm 1 m/S 758 mmHg 97%
    06:00 +25°C° 0 mm 1 m/S 758 mmHg 97%
    07:00 +27°C° 0 mm 1 m/S 759 mmHg 89%
    08:00 +28°C° 0 mm 0 m/S 759 mmHg 80%
    09:00 +30°C° 0 mm 0 m/S 759 mmHg 72%
    10:00 +31°C° 0.1 mm 0 m/S 759 mmHg 66%
    11:00 +34°C° 0.1 mm 1 m/S 759 mmHg 61%
    12:00 +35°C° 0.1 mm 1 m/S 758 mmHg 56%
    13:00 +36°C° 0.3 mm 2 m/S 758 mmHg 59%
    14:00 +35°C° 0.3 mm 2 m/S 757 mmHg 62%
    15:00 +35°C° 0.3 mm 2 m/S 756 mmHg 66%
    16:00 +32°C° 0.2 mm 2 m/S 757 mmHg 73%
    17:00 +30°C° 0.2 mm 2 m/S 757 mmHg 80%
    18:00 +29°C° 0.2 mm 2 m/S 757 mmHg 88%
    19:00 +28°C° 0 mm 2 m/S 758 mmHg 90%
    20:00 +28°C° 0 mm 3 m/S 758 mmHg 91%
    21:00 +28°C° 0 mm 3 m/S 759 mmHg 93%
    22:00 +27°C° 0 mm 3 m/S 759 mmHg 94%
    23:00 +27°C° 0 mm 2 m/S 759 mmHg 94%

    Morgen, 16 September, Montag

    Zeit Temperatur Niederschläge Wind Luftdruck Luftfeuchtigkeit
    00:00 +27°C° 0 mm 2 m/S 759 mmHg 95%
    01:00 +27°C° 0 mm 2 m/S 758 mmHg 95%
    02:00 +27°C° 0 mm 2 m/S 758 mmHg 95%
    03:00 +27°C° 0 mm 1 m/S 758 mmHg 96%
    04:00 +27°C° 0.1 mm 1 m/S 758 mmHg 96%
    05:00 +27°C° 0.1 mm 1 m/S 759 mmHg 95%
    06:00 +27°C° 0.1 mm 1 m/S 759 mmHg 95%
    07:00 +29°C° 0.1 mm 2 m/S 759 mmHg 89%
    08:00 +30°C° 0.1 mm 2 m/S 760 mmHg 82%
    09:00 +32°C° 0.1 mm 2 m/S 760 mmHg 75%
    10:00 +34°C° 0.1 mm 3 m/S 760 mmHg 69%
    11:00 +35°C° 0.1 mm 3 m/S 759 mmHg 62%
    12:00 +36°C° 0.1 mm 3 m/S 759 mmHg 56%
    13:00 +36°C° 0 mm 3 m/S 758 mmHg 56%
    14:00 +36°C° 0 mm 3 m/S 757 mmHg 57%
    15:00 +35°C° 0 mm 3 m/S 757 mmHg 58%
    16:00 +34°C° 0 mm 3 m/S 757 mmHg 66%
    17:00 +31°C° 0 mm 2 m/S 757 mmHg 75%
    18:00 +29°C° 0 mm 2 m/S 758 mmHg 84%
    19:00 +29°C° 0 mm 2 m/S 758 mmHg 87%
    20:00 +28°C° 0 mm 2 m/S 758 mmHg 90%
    21:00 +27°C° 0 mm 2 m/S 759 mmHg 93%
    22:00 +27°C° 0 mm 2 m/S 759 mmHg 93%
    23:00 +27°C° 0 mm 2 m/S 759 mmHg 93%

    übermorgen, 17 September, Dienstag

    Zeit Temperatur Niederschläge Wind Luftdruck Luftfeuchtigkeit
    00:00 +27°C° 0 mm 2 m/S 759 mmHg 94%
    01:00 +27°C° 0 mm 2 m/S 758 mmHg 94%
    02:00 +27°C° 0 mm 2 m/S 758 mmHg 93%
    03:00 +27°C° 0 mm 2 m/S 758 mmHg 93%
    04:00 +27°C° 0.1 mm 2 m/S 758 mmHg 94%
    05:00 +27°C° 0.1 mm 2 m/S 759 mmHg 95%
    06:00 +27°C° 0.1 mm 1 m/S 759 mmHg 96%
    07:00 +29°C° 0.1 mm 2 m/S 759 mmHg 88%
    08:00 +30°C° 0.1 mm 2 m/S 760 mmHg 81%
    09:00 +32°C° 0.1 mm 2 m/S 760 mmHg 73%
    10:00 +34°C° 0 mm 3 m/S 760 mmHg 68%
    11:00 +35°C° 0 mm 3 m/S 759 mmHg 62%
    12:00 +36°C° 0 mm 3 m/S 759 mmHg 57%
    13:00 +36°C° 0.1 mm 3 m/S 758 mmHg 58%
    14:00 +35°C° 0.1 mm 3 m/S 758 mmHg 60%
    15:00 +35°C° 0.1 mm 3 m/S 757 mmHg 62%
    16:00 +33°C° 0 mm 3 m/S 757 mmHg 68%
    17:00 +31°C° 0 mm 3 m/S 757 mmHg 75%
    18:00 +29°C° 0 mm 2 m/S 758 mmHg 82%
    19:00 +29°C° 0 mm 2 m/S 758 mmHg 85%
    20:00 +28°C° 0 mm 2 m/S 759 mmHg 88%
    21:00 +27°C° 0 mm 2 m/S 759 mmHg 92%
    22:00 +27°C° 0 mm 2 m/S 759 mmHg 93%
    23:00 +27°C° 0 mm 1 m/S 759 mmHg 94%

    18 September, Mittwoch

    Zeit Temperatur Niederschläge Wind Luftdruck Luftfeuchtigkeit
    00:00 +27°C° 0 mm 1 m/S 759 mmHg 95%
    01:00 +27°C° 0 mm 1 m/S 759 mmHg 96%
    02:00 +27°C° 0 mm 1 m/S 758 mmHg 96%
    03:00 +27°C° 0 mm 1 m/S 758 mmHg 97%
    04:00 +27°C° 0.6 mm 1 m/S 758 mmHg 97%
    05:00 +27°C° 0.6 mm 1 m/S 759 mmHg 97%
    06:00 +26°C° 0.6 mm 1 m/S 759 mmHg 97%
    07:00 +28°C° 0.3 mm 1 m/S 759 mmHg 91%
    08:00 +30°C° 0.3 mm 1 m/S 760 mmHg 85%
    09:00 +31°C° 0.3 mm 2 m/S 760 mmHg 78%
    10:00 +34°C° 0 mm 2 m/S 760 mmHg 68%
    11:00 +34°C° 0 mm 1 m/S 759 mmHg 59%
    12:00 +36°C° 0 mm 1 m/S 759 mmHg 49%
    13:00 +37°C° 0 mm 2 m/S 758 mmHg 48%
    14:00 +37°C° 0 mm 2 m/S 757 mmHg 48%
    15:00 +36°C° 0 mm 3 m/S 756 mmHg 48%
    16:00 +34°C° 0 mm 3 m/S 757 mmHg 58%
    17:00 +31°C° 0 mm 3 m/S 757 mmHg 68%
    18:00 +29°C° 0 mm 3 m/S 757 mmHg 78%
    19:00 +28°C° 0 mm 2 m/S 758 mmHg 82%
    20:00 +27°C° 0 mm 2 m/S 758 mmHg 86%
    21:00 +27°C° 0 mm 1 m/S 759 mmHg 90%
    22:00 +26°C° 0 mm 1 m/S 759 mmHg 91%
    23:00 +26°C° 0 mm 1 m/S 759 mmHg 91%

    19 September, Donnerstag

    Zeit Temperatur Niederschläge Wind Luftdruck Luftfeuchtigkeit
    00:00 +26°C° 0 mm 1 m/S 758 mmHg 92%
    01:00 +26°C° 0.1 mm 1 m/S 758 mmHg 92%
    02:00 +25°C° 0.1 mm 1 m/S 758 mmHg 93%
    03:00 +25°C° 0.1 mm 1 m/S 758 mmHg 93%
    04:00 +25°C° 0.1 mm 1 m/S 758 mmHg 94%
    05:00 +25°C° 0.1 mm 1 m/S 758 mmHg 95%
    06:00 +25°C° 0.1 mm 1 m/S 758 mmHg 95%
    07:00 +27°C° 0 mm 1 m/S 759 mmHg 87%
    08:00 +29°C° 0 mm 1 m/S 759 mmHg 78%
    09:00 +32°C° 0 mm 1 m/S 759 mmHg 70%
    10:00 +33°C° 0 mm 1 m/S 758 mmHg 62%
    11:00 +35°C° 0 mm 2 m/S 758 mmHg 55%
    12:00 +37°C° 0 mm 2 m/S 757 mmHg 47%
    13:00 +37°C° 0 mm 2 m/S 757 mmHg 47%
    14:00 +37°C° 0 mm 2 m/S 756 mmHg 47%
    15:00 +37°C° 0 mm 3 m/S 755 mmHg 47%
    16:00 +34°C° 0 mm 3 m/S 755 mmHg 59%
    17:00 +31°C° 0 mm 3 m/S 755 mmHg 70%
    18:00 +29°C° 0 mm 3 m/S 756 mmHg 82%
    19:00 +28°C° 0 mm 3 m/S 756 mmHg 84%
    20:00 +28°C° 0 mm 2 m/S 757 mmHg 86%
    21:00 +27°C° 0 mm 2 m/S 757 mmHg 88%
    22:00 +27°C° 0.2 mm 2 m/S 757 mmHg 89%
    23:00 +27°C° 0.2 mm 1 m/S 757 mmHg 91%

    20 September, Freitag

    Zeit Temperatur Niederschläge Wind Luftdruck Luftfeuchtigkeit
    00:00 +26°C° 0.2 mm 1 m/S 757 mmHg 92%
    01:00 +26°C° 0.5 mm 1 m/S 757 mmHg 93%
    02:00 +26°C° 0.5 mm 1 m/S 757 mmHg 94%
    03:00 +25°C° 0.5 mm 1 m/S 757 mmHg 96%
    04:00 +25°C° 0.3 mm 1 m/S 757 mmHg 96%
    05:00 +25°C° 0.3 mm 1 m/S 757 mmHg 97%
    06:00 +25°C° 0.3 mm 1 m/S 758 mmHg 98%
    07:00 +27°C° 0.2 mm 1 m/S 758 mmHg 91%
    08:00 +29°C° 0.2 mm 1 m/S 758 mmHg 84%
    09:00 +30°C° 0.2 mm 2 m/S 758 mmHg 78%
    10:00 +32°C° 0.1 mm 2 m/S 758 mmHg 69%
    11:00 +34°C° 0.1 mm 2 m/S 758 mmHg 61%
    12:00 +36°C° 0.1 mm 2 m/S 757 mmHg 53%
    13:00 +35°C° 0.2 mm 2 m/S 757 mmHg 56%
    14:00 +35°C° 0.2 mm 2 m/S 756 mmHg 59%
    15:00 +34°C° 0.2 mm 3 m/S 755 mmHg 62%
    16:00 +33°C° 0.1 mm 3 m/S 756 mmHg 69%
    17:00 +30°C° 0.1 mm 2 m/S 756 mmHg 76%
    18:00 +28°C° 0.1 mm 2 m/S 756 mmHg 83%
    19:00 +28°C° 0 mm 2 m/S 757 mmHg 85%
    20:00 +27°C° 0 mm 2 m/S 758 mmHg 87%
    21:00 +27°C° 0 mm 2 m/S 758 mmHg 89%
    22:00 +27°C° 0 mm 2 m/S 758 mmHg 91%
    23:00 +26°C° 0 mm 1 m/S 758 mmHg 93%
    Mehr zeigen